User: anonymous   Login
Location: Oshawa
(43.9000°N, 78.8670°W)
Time: 21:13:35
(UTC-04:00)
Language:

Cosmos 1500 - Orbit

View from above orbital plane
View from above orbital plane
View from above satellite
View from above satellite

Ground track
Ground track

The orbit data is extracted from the following two-line orbital elements,

1 14372U 83099A   17292.89284674 +.00001296 +00000-0 +62585-4 0  9993
2 14372 082.5172 220.3384 0016098 018.4866 023.4479 15.17670150856419
Epoch (UTC): 19 October 2017 21:25:41
Eccentricity: 0.0016098
inclination: 82.5172°
perigee height: 502 km
apogee height: 524 km
right ascension of ascending node: 220.3384°
argument of perigee: 18.4866°
revolutions per day: 15.17670150
mean anomaly at epoch: 23.4479°
orbit number at epoch: 85641

The dashed part of the orbit path shows where the satellite is in the earth's shadow,  

DLR